Chicago, Illinois, United States (60601)
Lat: 41.85N, Lon: 87.65W
Wx Zone: ILZ014
Local Info
Past Weather Observations for Monday, August 24, 2015

NOTE: This archive is for the closest National Weather Service station to Chicago. Information may differ from the station used for current weather conditions.

Click here for Long-term Archive

Time Weather Temperature Dewpoint Humidity Pressure Winds Precip Visibility
23:53
Overcast
64°F / 18°C 45°F / 7°C 49% 29.98 in
(1015 mb)
WNW 8.1 mph
(WNW 13 kph)
- 10SM
22:53
Overcast
64°F / 18°C 45°F / 7°C 49% 29.98 in
(1015 mb)
NW 9.2 mph
(NW 15 kph)
- 10SM
21:53
Overcast
64°F / 18°C 45°F / 7°C 49% 30.01 in
(1016 mb)
NW 8.1 mph
(NW 13 kph)
- 10SM
20:53
Mostly Cloudy
64°F / 18°C 43°F / 6°C 46% 30.01 in
(1016 mb)
NW 10.4 mph
(NW 17 kph)
- 10SM
19:53
Overcast
64°F / 18°C 43°F / 6°C 46% 30.01 in
(1016 mb)
NW 19.6 mph
(NW 32 kph)
- 10SM
18:53
Overcast
70°F / 21°C 46°F / 8°C 43% 29.95 in
(1014 mb)
NW 13.8 mph
(NW 22 kph)
- 10SM
17:53
Mostly Cloudy
72°F / 22°C 46°F / 8°C 41% 29.95 in
(1014 mb)
NW 18.4 mph
(NW 30 kph)
- 10SM
16:53
Mostly Cloudy
72°F / 22°C 46°F / 8°C 41% 29.92 in
(1013 mb)
W 17.3 mph
(W 28 kph)
- 10SM
15:53
Mostly Cloudy
73°F / 23°C 46°F / 8°C 38% 29.92 in
(1013 mb)
W 19.6 mph
(W 32 kph)
- 10SM
14:53
Mostly Cloudy
73°F / 23°C 46°F / 8°C 38% 29.92 in
(1013 mb)
W 23 mph
(W 37 kph)
- 10SM
13:53
Partly Cloudy
75°F / 24°C 45°F / 7°C 34% 29.92 in
(1013 mb)
W 17.3 mph
(W 28 kph)
- 10SM
12:53
Partly Cloudy
75°F / 24°C 46°F / 8°C 36% 29.92 in
(1013 mb)
W 18.4 mph
(W 30 kph)
- 10SM
11:53
Partly Cloudy
73°F / 23°C 45°F / 7°C 36% 29.92 in
(1013 mb)
SSW 21.9 mph
(SSW 35 kph)
- 10SM
10:53
Partly Cloudy
72°F / 22°C 48°F / 9°C 44% 29.95 in
(1014 mb)
SSW 19.6 mph
(SSW 32 kph)
- 10SM
09:53
Partly Cloudy
72°F / 22°C 48°F / 9°C 44% 29.98 in
(1015 mb)
SSW 20.7 mph
(SSW 33 kph)
- 10SM
08:53
Clear
66°F / 19°C 48°F / 9°C 52% 29.98 in
(1015 mb)
SSW 15 mph
(SSW 24 kph)
- 10SM
07:53
Clear
64°F / 18°C 50°F / 10°C 60% 29.98 in
(1015 mb)
SSW 9.2 mph
(SSW 15 kph)
- 10SM
06:53
Partly Cloudy
61°F / 16°C 48°F / 9°C 63% 29.98 in
(1015 mb)
SSW 10.4 mph
(SSW 17 kph)
- 10SM
05:53
Partly Cloudy
57°F / 14°C 48°F / 9°C 72% 29.98 in
(1015 mb)
SSW 8.1 mph
(SSW 13 kph)
- 10SM
04:53
Partly Cloudy
57°F / 14°C 48°F / 9°C 72% 29.95 in
(1014 mb)
SSW 8.1 mph
(SSW 13 kph)
- 10SM
03:53
Clear
59°F / 15°C 48°F / 9°C 68% 29.95 in
(1014 mb)
SSW 10.4 mph
(SSW 17 kph)
- 10SM
02:53
Clear
59°F / 15°C 50°F / 10°C 72% 29.95 in
(1014 mb)
SSW 9.2 mph
(SSW 15 kph)
- 10SM
01:53
Partly Cloudy
61°F / 16°C 50°F / 10°C 68% 29.95 in
(1014 mb)
SSW 9.2 mph
(SSW 15 kph)
- 10SM
00:53
Partly Cloudy
63°F / 17°C 50°F / 10°C 64% 29.95 in
(1014 mb)
SSW 6.9 mph
(SSW 11 kph)
- 10SM
Time Weather Temperature Dewpoint Humidity Pressure Winds Precip Visibility


Weather for websites

WeatherForYou.com, LLC is not responsible for any damages or problems caused by this service. Current weather conditions are obtained from the closest station including government and personal stations which may have varying degrees of accuracy. Weather forecasts are derived from the NOAA NDFD. Like all things, this site belongs to Jesus Christ... He just trusts us to maintain it. If you have any questions or comments email webmaster@weatherforyou.com

Copyright © 2015, WeatherForYou.com LLC. All rights reserved.